Dewpoint
27 27 26 25 24 24 24 23 21 18 16 14 15 16 17 20 25 30 31 28 26 25 26 38 43 49 55 58 59 57 60 61 61 60 57 54 54 56 56 57 59 59 58 58
29 27 25 22 22 19 17 17 17 17 18 19 22 26 23 23 24 31 32 31 28 25 30 40 42 50 56 58 59 58 58 62 62 61 59 55 55 55 57 58 58 58 57 57
23 22 21 20 19 19 19 18 19 19 20 24 25 24 25 27 28 30 34 36 37 37 38 40 41 49 56 58 58 58 58 62 63 62 60 59 57 55 56 55 57 56 56 56
23 23 20 19 19 20 22 23 24 26 26 21 25 19 25 26 24 29 33 37 37 38 39 39 40 48 56 57 58 58 59 61 64 63 61 61 59 57 57 56 56 56 57 58
23 24 24 24 24 27 27 31 31 30 27 27 25 25 25 25 23 27 32 34 38 37 39 39 41 46 57 56 57 59 58 59 60 61 62 61 60 60 61 61 61 60 61 62
27 27 27 27 28 30 32 32 32 30 27 21 22 26 28 30 34 36 33 37 41 44 42 41 44 46 57 57 57 59 59 57 59 62 63 61 61 61 61 61 61 61 62 63
27 29 30 35 32 31 32 29 22 20 20 17 30 25 29 33 36 37 39 43 44 44 45 45 45 47 57 57 57 59 58 59 60 59 63 61 62 61 61 61 61 60 61 61
24 23 32 35 32 30 29 29 24 17 20 23 30 25 28 36 40 41 42 44 43 43 41 42 45 48 57 57 58 58 56 56 56 61 61 62 62 61 61 62 61 60 61 61
25 24 30 32 35 34 30 29 33 27 29 23 26 29 33 35 34 39 43 42 43 43 43 45 46 54 57 57 57 55 56 56 58 59 60 60 61 61 61 62 61 61 61 61
28 24 34 32 35 35 33 35 28 29 21 19 24 25 26 31 32 39 41 41 42 43 44 48 51 57 57 57 56 55 56 56 58 58 59 60 60 60 60 60 60 61 62 62
30 29 27 34 32 29 31 30 30 31 27 22 20 24 34 33 35 39 41 42 43 43 44 47 54 57 57 58 58 58 58 58 58 59 59 59 59 60 60 60 60 60 61 61
34 29 27 29 28 31 31 32 28 27 25 29 26 25 36 38 38 39 40 42 43 44 45 48 55 56 57 57 58 59 59 59 59 59 59 59 59 59 59 59 60 60 60 61
33 28 24 26 27 30 30 28 28 29 29 27 24 26 33 34 36 39 39 41 42 44 45 46 47 50 52 53 54 56 57 58 59 59 59 58 58 58 58 59 59 60 60 60
35 28 26 25 29 32 30 27 29 29 26 27 27 29 30 31 31 33 35 39 41 43 44 45 45 46 49 51 51 52 54 56 57 58 57 57 57 57 56 57 58 58 58 57
32 26 26 27 28 29 29 28 29 27 27 27 28 29 30 31 32 32 34 36 38 39 41 43 44 45 46 48 50 51 52 54 55 54 55 55 54 54 54 54 54 54 53 53
30 26 26 24 25 28 28 31 31 33 34 29 31 29 32 33 34 33 34 35 36 37 39 41 42 43 43 45 47 49 50 51 50 50 50 51 50 50 50 50 50 50 49 48
28 27 25 22 24 23 23 31 30 30 29 28 28 30 33 33 34 34 34 36 37 38 38 39 41 42 43 43 44 45 46 47 47 47 47 47 47 47 46 46 46 46 45 46
29 26 25 22 19 19 26 31 32 29 29 29 28 30 34 34 35 35 35 37 38 38 39 40 41 42 42 42 43 43 43 45 45 46 46 46 45 44 44 44 44 44 44 44
30 28 24 20 20 24 27 29 30 30 30 31 29 30 32 35 35 35 36 37 38 39 40 41 42 42 42 42 42 42 42 42 42 42 42 43 44 43 42 42 41 42 41 41
28 28 25 21 18 19 26 29 31 31 27 32 32 32 32 31 31 34 36 36 37 39 40 41 42 42 42 42 42 42 41 41 41 41 41 42 42 42 42 42 41 42 41 41
23 21 22 21 20 22 26 29 30 24 29 33 34 34 34 34 35 37 37 37 37 38 40 40 40 39 40 42 42 41 41 40 41 41 41 40 41 42 42 42 41 41 40 40
20 19 18 20 19 19 30 30 29 34 35 35 36 36 35 36 37 37 37 37 37 36 38 38 37 37 38 39 40 39 39 40 41 41 41 40 40 40 40 39 39 40 39 39
20 24 22 24 25 32 34 34 35 36 36 37 37 37 37 37 37 36 36 36 36 36 36 37 36 35 35 36 37 38 38 40 39 39 39 39 39 39 39 39 38 38 39 38
25 26 25 26 30 32 35 36 36 37 38 39 39 38 37 37 37 36 36 36 36 36 35 36 35 35 34 35 35 35 36 39 40 39 38 38 39 38 37 38 38 37 37 37
26 26 24 27 31 32 34 36 37 37 37 38 40 39 38 37 37 37 37 36 35 35 35 34 34 33 33 34 34 34 34 35 37 37 38 38 39 39 38 38 38 38 38 39
28 25 24 22 29 29 31 35 37 36 36 37 38 38 39 39 39 38 37 35 33 33 34 35 34 33 33 33 33 33 33 34 34 35 35 35 35 37 38 38 38 40 40 40
Wind_Speed
11 7 12 15 19 22 20 23 28 28 24 26 29 33 29 28 23 27 29 34 27 28 29 16 14 13 14 14 16 19 9 17 24 27 21 19 19 19 16 14 23 21 19 18
6 15 20 18 19 18 19 22 32 30 22 21 21 31 30 27 29 25 26 17 21 25 24 15 18 15 17 16 16 20 9 27 26 25 22 23 21 18 17 16 18 15 19 19
16 12 18 16 17 18 23 25 30 28 30 27 28 37 34 33 30 21 19 17 15 13 14 16 18 18 16 17 19 18 23 23 27 27 23 23 20 18 17 17 18 17 20 21
9 9 11 12 17 15 27 19 24 27 21 19 1 21 14 16 21 18 18 21 16 15 20 19 20 17 19 18 20 15 22 13 24 31 28 26 25 25 21 20 19 17 21 21
8 9 7 14 16 7 18 15 16 21 19 16 20 11 8 7 17 19 12 14 10 15 17 17 13 13 19 17 20 17 18 13 1 25 27 23 22 23 23 20 22 20 20 20
22 20 16 15 16 15 20 20 21 16 9 10 23 14 2 4 6 14 13 12 7 4 12 12 9 11 17 16 14 13 11 18 18 20 29 28 24 21 21 19 19 18 16 16
11 10 5 3 11 10 7 14 5 2 6 8 6 7 3 14 9 13 7 3 4 4 2 8 12 16 18 19 16 14 14 14 19 22 18 30 24 23 26 25 21 20 18 16
6 4 3 3 3 7 13 6 4 6 1 4 11 5 8 20 9 2 3 6 9 7 2 5 15 17 21 23 17 18 16 13 9 11 7 12 12 13 19 20 19 19 17 17
6 5 3 8 4 2 7 8 10 5 5 3 3 8 5 15 13 14 11 15 13 11 8 3 9 17 24 23 22 22 20 15 6 14 18 16 15 19 16 14 18 18 16 18
2 7 6 5 3 12 8 9 3 4 4 4 4 4 12 14 12 12 16 17 15 14 12 10 8 18 23 21 22 18 20 20 16 15 9 13 12 16 17 15 17 16 16 18
3 4 5 3 3 6 7 8 3 4 1 6 5 8 15 12 16 19 20 20 17 17 18 16 6 21 21 16 16 14 19 22 22 20 18 16 13 11 11 13 16 13 13 12
3 3 6 3 2 8 7 7 6 7 10 3 3 10 16 16 18 24 22 21 21 26 20 16 24 22 22 18 15 14 13 14 22 22 19 18 16 17 13 15 16 17 16 13
7 5 8 3 2 5 9 11 7 6 4 20 7 7 15 17 21 21 22 22 25 21 26 34 28 26 25 24 21 15 14 14 17 17 17 16 14 15 13 11 12 14 14 17
3 6 8 8 5 5 12 24 22 10 13 11 16 17 20 22 24 23 22 22 24 19 25 29 32 29 24 20 19 17 17 16 14 15 15 14 13 13 13 13 14 15 14 13
0 6 6 8 12 17 24 23 23 23 17 14 14 19 18 19 21 21 22 22 25 29 32 27 24 22 21 21 18 18 17 16 15 13 14 13 13 13 14 12 11 14 14 14
2 2 4 6 8 20 17 23 20 15 11 15 14 18 16 18 20 25 23 23 27 27 28 28 25 24 22 20 18 15 15 16 16 17 15 13 14 13 13 12 12 14 14 12
4 4 4 1 3 5 11 12 14 15 20 16 15 14 15 19 22 24 22 24 24 23 25 24 21 20 19 17 14 16 14 15 15 15 13 14 13 13 12 12 12 12 12 12
6 5 2 3 4 3 4 4 6 16 14 13 12 12 14 16 17 19 20 20 20 20 19 19 18 20 20 17 17 14 14 14 15 14 12 10 12 11 11 12 11 9 11 13
4 3 2 3 6 5 4 3 3 5 10 13 13 10 12 14 17 21 18 17 16 14 15 15 16 16 16 16 15 15 16 16 15 13 12 9 9 10 10 10 11 9 10 11
6 4 1 3 2 3 4 2 3 6 6 8 11 13 13 10 11 8 13 15 17 18 17 17 17 16 18 18 17 19 18 16 16 13 10 8 8 8 8 7 6 6 6 8
0 3 2 4 4 3 3 2 4 2 3 8 11 13 14 13 9 8 9 12 14 15 16 15 16 16 17 14 16 17 15 16 11 10 10 9 8 8 9 8 7 8 7 6
1 2 3 1 1 2 1 0 3 6 9 10 9 10 12 11 9 10 12 12 12 12 13 14 16 16 16 17 15 15 16 11 9 10 10 10 9 8 6 6 5 5 5 5
1 0 2 2 2 3 4 8 5 3 10 7 9 7 8 8 8 8 9 10 12 12 11 11 14 14 14 17 17 17 16 15 12 12 10 8 7 5 4 3 2 2 4 4
3 3 1 5 5 9 7 5 4 7 9 7 7 6 6 9 8 7 7 8 8 9 11 13 14 14 15 15 14 12 12 13 12 12 11 9 6 6 5 4 1 2 4 5
1 9 7 3 8 7 7 9 10 9 8 8 6 7 6 6 7 8 7 7 7 8 9 10 12 12 12 11 11 11 13 12 10 10 9 9 8 8 5 2 1 4 1 2
10 8 8 6 17 10 14 14 13 11 8 5 6 6 6 5 6 8 8 7 6 7 6 9 11 10 7 8 8 8 9 7 6 6 10 10 9 6 6 7 8 5 9 9
Wind_Direction
257 238 233 243 246 250 261 264 272 281 291 288 280 282 278 265 252 264 247 241 222 234 233 221 232 194 200 194 179 173 266 196 170 156 156 152 152 151 157 162 163 176 153 153
257 243 246 262 278 286 281 283 276 284 284 291 294 289 286 276 274 246 254 248 228 223 212 187 208 198 209 201 187 179 207 195 181 161 154 154 156 157 159 160 169 157 153 159
239 259 307 264 274 277 270 263 272 272 292 286 281 281 269 258 258 225 233 240 253 224 228 204 206 191 212 191 184 172 189 210 175 162 158 153 157 157 159 163 168 172 160 163
281 293 277 283 278 272 273 264 269 276 277 275 46 293 300 254 233 222 215 219 231 246 226 209 215 187 210 192 172 177 167 228 168 165 164 167 165 163 166 167 165 173 158 164
259 295 291 285 276 283 260 298 269 279 273 287 275 262 298 265 226 224 213 242 247 225 225 215 203 203 210 179 156 174 161 202 299 181 169 170 168 166 163 164 161 168 161 168
264 265 283 266 286 284 279 280 273 253 248 251 258 210 264 315 296 304 224 229 237 255 206 210 179 224 194 159 159 164 177 204 197 240 171 164 168 159 147 152 153 159 153 149
286 267 232 353 300 294 236 302 281 136 207 251 114 133 265 320 305 294 215 84 58 40 269 238 214 215 173 142 164 115 104 170 198 236 210 167 167 161 157 159 160 156 151 150
320 318 232 188 243 285 290 230 332 295 313 57 175 357 336 353 35 113 39 66 64 29 3 254 209 195 168 155 136 127 110 99 345 215 179 131 132 155 164 158 158 162 159 153
321 293 279 229 228 255 330 336 304 275 252 76 31 358 283 8 13 343 82 60 44 24 8 319 208 174 159 155 154 140 132 95 17 145 126 106 113 111 118 127 148 154 155 155
301 296 315 1 257 230 240 298 319 347 354 72 348 352 358 357 356 2 50 45 36 12 11 13 152 161 150 158 150 153 138 136 155 148 141 135 132 128 128 127 128 140 140 153
252 262 298 275 329 311 333 324 336 269 41 21 5 20 9 22 360 32 39 36 28 25 24 8 152 133 137 119 124 157 137 154 166 160 145 147 144 145 140 160 148 147 147 157
238 284 295 275 347 253 250 293 351 12 15 13 79 41 11 37 32 32 30 29 27 31 28 22 101 95 107 111 116 117 128 158 162 158 154 154 157 162 171 173 163 159 171 175
332 341 324 116 198 11 359 23 14 28 47 26 31 40 31 26 44 45 29 24 36 15 33 47 53 62 68 67 67 70 94 95 108 136 138 148 148 150 175 181 169 166 174 183
301 345 27 23 21 324 28 43 44 61 67 68 52 53 33 25 33 31 40 32 27 38 49 52 46 49 51 61 64 60 66 81 89 107 119 123 126 138 141 148 154 148 155 161
50 20 47 63 72 53 39 38 43 62 57 61 58 50 36 29 33 39 38 35 35 29 40 47 53 53 51 50 54 61 58 71 82 89 109 115 114 117 121 128 122 120 128 133
257 91 29 28 26 69 44 23 43 37 16 62 59 64 49 36 30 34 35 34 32 33 32 34 45 49 48 44 45 53 55 61 77 83 76 83 98 105 108 111 117 116 107 105
12 355 355 15 281 318 34 10 41 50 49 48 44 58 54 42 37 29 29 34 37 31 31 32 33 47 61 61 55 42 51 65 65 77 82 85 86 94 100 104 107 113 119 123
344 336 335 318 275 59 93 47 34 66 39 57 70 71 81 82 59 40 35 36 35 33 36 29 37 43 45 50 63 68 55 57 73 74 72 78 93 97 101 102 106 114 123 132
20 302 316 15 59 136 161 103 67 46 39 27 44 43 130 138 60 35 28 37 41 33 39 40 43 61 51 45 59 67 72 70 67 65 72 78 90 99 95 105 117 120 123 133
311 267 330 3 72 54 94 97 356 300 89 32 40 29 32 151 62 40 29 27 32 32 38 38 41 46 43 44 55 62 57 54 58 70 74 74 87 100 110 115 119 124 136 141
261 304 334 33 62 112 74 358 305 25 117 72 62 49 53 80 102 109 80 56 43 36 42 48 42 39 24 41 69 67 58 52 57 69 73 72 80 92 109 115 127 132 140 143
342 197 143 233 198 272 50 62 69 127 83 83 65 84 97 100 96 96 97 90 81 67 54 50 51 41 31 34 53 54 43 18 54 73 73 72 69 73 91 107 123 128 147 166
145 157 112 112 192 116 47 102 65 83 117 80 104 79 105 112 97 84 84 89 94 98 89 78 68 62 45 42 43 43 15 12 32 54 58 62 75 70 100 105 137 166 178 194
195 196 192 160 165 164 156 127 139 98 111 102 83 92 82 114 105 100 84 76 67 61 71 95 97 76 55 48 53 50 34 34 32 33 26 22 48 72 71 36 35 260 236 233
163 156 187 124 145 136 181 177 157 128 128 120 88 77 71 103 101 113 107 92 84 79 67 71 83 84 83 73 54 34 24 23 29 34 27 14 3 356 354 353 275 283 249 86
190 189 182 215 182 188 192 173 156 152 145 124 129 114 84 52 96 107 112 101 97 94 87 81 81 82 77 66 50 32 21 25 27 11 1 3 358 350 337 320 309 273 266 278